Location: Seven Kings
(51.5667°N, 0.1000°E)
Time: 11:32:50
(UTC+00:00)

Cosmos 1315 Rocket - Pass Details

Date: 29 October 2020
Orbit: 530 x 567 km, 81.2° (Epoch: 24 November)

Event Time Altitude Azimuth Distance (km) Brightness Sun altitude
Rises 17:41:48 0° 156° (SSE) 2,685 6.2 -10.5°
Reaches altitude 10° 17:44:16 10° 141° (SE) 1,805 5.2 -10.9°
Maximum altitude 17:47:21 22° 90° (E) 1,220 4.0 -11.4°
Drops below altitude 10° 17:50:30 10° 38° (NE) 1,835 5.1 -11.9°
Enters shadow 17:52:00 - 28° (NNE) 2,353 5.7 -12.1°
